Regional Weather Roundup
Issued by NWS Albany, NY

Home | Current Version | Previous Version | Text Only | Print | Product List | Glossary On
Versions: 1 2 3 4 5 6 7 8 9 10 11 12 13 14 15 16 17 18 19 20 21 22 23 24 25 26 27 28 29 30 31 32 33 34 35 36 37 38 39 40 41 42 43 44 45 46 47 48 49 50
000
ASUS41 KALY 010710
RWRALY

NEW YORK STATE HOURLY WEATHER ROUNDUP
NATIONAL WEATHER SERVICE ALBANY NY
300 AM EDT WED JUL 01 2015

NOTE: "FAIR" INDICATES FEW OR NO CLOUDS BELOW 12,000 FEET WITH NO
SIGNIFICANT WEATHER AND/OR NO OBSTRUCTIONS TO VISIBILITY.

NYZ032-033-038>043-046>054-057>066-NYZ062>081-010800-
EAST


CITY           SKY/WX    TMP DP  RH WIND       PRES   REMARKS
ALBANY         CLOUDY    68  64  87 S7        29.79F
GLENS FALLS    CLOUDY    63  61  93 CALM      29.80F
POUGHKEEPSIE   CLOUDY    71  68  90 E3        29.78F
NEWBURGH       MOCLDY    70  68  94 SE5       29.80F
MONTGOMERY     CLOUDY    68  67  96 CALM      29.79S FOG
WHITE PLAINS   CLOUDY    71  69  93 SE6       29.81F
ISLIP          CLOUDY    72  69  90 S12       29.80F
NEW YORK CITY  CLOUDY    73  69  87 S10       29.79S
CENTRAL PARK   CLOUDY    73  69  87 VRB6      29.82S FOG
$$

NYZ005>009-017-018-044>046-055-056-010800-
CENTRAL


CITY           SKY/WX    TMP DP  RH WIND       PRES   REMARKS
FULTON         CLOUDY    65  63  93 CALM      29.71F
SYRACUSE       CLOUDY    63  63 100 E6        29.71F FOG
ROME           CLOUDY    63  62  97 E6        29.76F
ELMIRA         MOCLDY    61  60  97 N3        29.75F
BINGHAMTON     CLOUDY    62  60  93 S7        29.78F
MONTICELLO     CLOUDY    63  63 100 CALM      29.84S VSB 1/4
$$

NYZ026>034-041>043-010800-
NORTH


CITY           SKY/WX    TMP DP  RH WIND       PRES   REMARKS
WATERTOWN      LGT RAIN  64  63  96 E5        29.71F FOG
FORT DRUM      NOT AVBL
MASSENA        CLOUDY    61  59  93 CALM      29.76F
SARANAC LAKE   CLOUDY    63  59  87 S6        29.79F
PLATTSBURGH    MOCLDY    63  61  93 S7        29.79F
$$

NYZ001>004-010>016-019>021-010800-
WEST


CITY           SKY/WX    TMP DP  RH WIND       PRES   REMARKS
NIAGARA FALLS  CLOUDY    63  60  90 SW8       29.73F
BUFFALO        CLOUDY    63  60  90 SW7       29.74F
DUNKIRK        MOCLDY    61  59  93 S6        29.75F
JAMESTOWN      CLOUDY    61  57  88 S6        29.80F
WELLSVILLE     RAIN      61  58  90 SW7       29.80F FOG
ROCHESTER      LGT RAIN  65  63  93 W7        29.73F
PENN YAN       MOCLDY    65  62  90 SW10      29.73F
$$

             KEY
       WCI = WIND CHILL INDEX
       VSB = VISIBILITY
       HX  = HEAT INDEX
$$


USA.gov is the U.S. government's official web portal to all federal, state and local government web resources and services.